User: anonymous   Login
Location: Newark
(37.8444°N, 127.0614°E)
Time: 01:42:42
(UTC+00:00)
Language:

nSIGHT-1 - Orbit

View from above orbital plane
View from above orbital plane
View from above satellite
View from above satellite

Ground track
Ground track

The orbit data is extracted from the following two-line orbital elements,

1 42726U 98067MF  20021.72964210  .00046577  00000-0  19410-3 0  9994
2 42726  51.6305 269.6691 0001447 240.0041 120.0819 15.85204226152069
Epoch (UTC): 21 January 2020 17:30:41
Eccentricity: 0.0001447
inclination: 51.6305°
perigee height: 315 km
apogee height: 317 km
right ascension of ascending node: 269.6691°
argument of perigee: 240.0041°
revolutions per day: 15.85204226
mean anomaly at epoch: 120.0819°
orbit number at epoch: 15206

The dashed part of the orbit path shows where the satellite is in the earth's shadow,  

DLR